Theta_e
334 333 333 333 332 333 332 332 331 331 330 329 329 331 331 331 330 330 329 328 327 327 327 328 329 328 328 329 329 330 329 327 327 327 327 328 328 329 329 328 327 326 326 326 326 325 324 324 324 324 325 326 325 323 323 324 325 325 325 324 324 324 324
332 333 333 333 333 333 332 332 331 331 332 331 331 331 331 331 330 329 329 328 327 327 326 328 329 328 328 329 330 330 329 327 327 327 327 328 328 328 328 327 327 327 326 326 327 326 324 324 324 324 325 325 325 324 324 325 325 326 325 325 325 325 325
331 332 332 332 333 333 332 332 331 331 331 332 332 331 331 330 330 329 329 328 328 327 327 328 329 329 329 329 330 329 328 327 327 327 327 328 329 329 328 328 327 326 326 326 326 326 325 324 323 324 324 324 324 324 325 326 326 325 325 325 325 325 325
331 330 330 331 333 334 333 332 331 331 331 331 331 331 330 330 329 328 328 328 328 328 328 329 329 329 329 329 329 328 327 326 326 326 327 329 330 329 329 328 327 326 326 326 327 326 325 325 324 323 324 324 323 324 325 326 326 325 325 325 325 325 324
331 329 328 329 331 331 331 332 332 331 330 331 331 331 330 329 328 328 328 327 328 328 329 329 329 329 329 328 327 326 326 326 327 327 328 329 330 330 329 329 328 327 327 327 327 326 326 325 325 324 324 324 323 324 325 326 325 325 325 325 325 324 324
328 326 326 328 330 330 328 330 331 331 330 330 331 331 329 328 327 326 327 327 328 329 329 329 328 328 328 327 326 325 325 326 327 327 328 330 330 329 329 329 328 327 328 328 327 326 326 325 325 324 324 324 324 324 325 325 325 325 325 325 324 324 323
325 324 326 328 330 330 329 329 330 331 330 330 329 329 327 326 326 326 327 328 328 329 329 329 327 327 328 328 326 325 325 326 328 328 329 329 329 329 329 329 329 328 328 328 327 326 326 325 326 325 324 324 325 324 325 325 324 325 325 324 323 322 322
324 325 327 329 329 330 331 330 330 331 330 330 329 327 325 326 327 328 329 328 327 328 329 328 327 327 328 328 327 326 326 327 328 328 328 329 329 329 329 328 328 328 328 327 327 326 326 326 326 325 324 324 325 325 325 325 324 324 323 322 321 320 320
327 326 328 330 329 330 331 331 330 331 330 330 328 327 327 328 329 329 329 328 327 328 329 328 328 328 328 328 328 327 327 328 328 328 328 328 329 328 329 328 328 328 328 327 327 326 326 327 326 326 325 324 324 324 324 324 324 324 321 319 319 319 320
330 329 329 330 329 330 331 331 330 330 330 330 328 327 328 330 330 329 328 327 327 328 328 328 328 328 328 328 328 328 328 329 328 329 328 328 328 328 328 328 328 328 328 327 327 327 327 327 326 326 325 325 324 323 323 323 324 323 320 318 319 319 320
329 330 331 331 331 331 332 331 330 329 329 329 328 328 329 330 329 328 327 326 326 327 328 328 328 328 328 329 329 328 328 329 328 328 328 328 328 328 328 328 328 328 328 327 327 327 327 327 327 326 326 325 325 324 322 321 323 323 319 317 318 319 319
328 328 330 330 330 330 331 330 330 329 329 328 328 328 329 329 328 327 325 325 326 327 328 328 328 328 329 329 329 329 328 328 328 327 327 327 327 327 327 328 328 327 327 327 326 327 327 327 327 327 326 325 325 325 322 320 322 322 318 316 316 316 315
327 326 325 325 327 328 329 329 329 329 329 327 328 329 330 329 326 325 324 324 325 327 328 328 328 328 329 329 329 329 328 327 327 326 326 326 326 326 326 327 327 327 327 326 326 327 327 326 327 327 326 326 325 325 322 320 321 320 316 315 315 314 312
328 325 323 323 326 328 329 329 329 329 328 326 327 329 329 327 325 324 325 324 325 327 327 328 328 328 328 328 328 329 328 327 326 326 325 325 325 325 325 325 326 326 326 326 326 327 326 326 327 327 326 326 325 324 322 319 319 318 316 315 315 315 314
328 328 327 326 328 329 329 329 329 328 326 326 327 329 328 326 325 325 325 324 324 325 325 326 328 328 328 328 328 328 327 327 326 325 325 325 325 325 325 325 325 326 326 326 326 326 326 326 326 326 325 324 323 322 321 320 319 318 316 316 315 315 315
328 329 329 329 329 330 329 329 328 327 326 327 328 329 328 327 326 327 326 325 323 323 323 324 326 327 326 328 328 327 327 326 326 325 325 325 325 325 325 325 325 326 326 325 326 326 326 326 326 326 323 321 321 321 320 320 320 320 319 318 317 316 315
328 329 329 328 328 329 329 328 327 326 327 329 329 329 328 327 328 328 327 325 324 322 321 323 325 325 326 327 328 327 327 326 326 325 325 325 325 325 325 325 325 326 325 325 326 326 326 326 326 325 322 320 320 320 320 320 321 321 321 321 320 319 317
328 328 328 328 328 329 329 328 326 325 327 329 329 329 329 328 329 329 327 325 324 322 321 322 323 324 325 326 327 326 326 326 325 325 324 324 325 325 325 325 325 325 325 325 325 326 326 326 325 325 323 321 320 321 321 321 321 321 321 321 322 321 319
329 328 329 329 329 329 329 327 326 325 325 326 329 329 329 328 328 328 328 326 324 322 321 321 322 323 323 323 324 324 324 325 325 324 324 324 325 325 326 326 325 325 325 326 326 325 326 326 325 326 325 322 321 321 321 321 322 322 321 321 321 322 321
329 329 329 329 329 328 329 328 327 326 325 326 328 329 328 327 327 328 327 325 324 322 321 320 320 321 321 320 321 321 322 323 323 322 322 323 324 325 326 326 325 326 326 326 326 326 326 326 325 326 325 322 321 321 321 320 321 321 321 321 321 321 321
328 328 329 329 328 328 329 329 327 327 326 326 328 328 328 327 327 327 326 325 324 322 321 320 320 320 319 319 320 321 322 322 322 321 321 322 323 324 326 326 326 326 326 326 326 326 326 325 325 325 323 322 321 320 319 319 319 320 320 320 320 320 319
326 327 328 328 329 328 329 329 328 328 327 326 327 327 327 327 327 327 326 325 325 323 321 321 321 320 319 320 321 321 322 322 322 321 322 323 324 324 325 326 326 326 326 326 326 325 323 322 323 323 322 320 320 319 318 317 318 318 318 319 319 318 317
325 325 326 327 328 329 329 329 329 329 327 326 326 327 328 327 327 326 325 326 325 323 322 322 322 322 321 321 321 321 321 321 322 321 322 323 324 325 325 326 327 326 325 325 325 322 320 320 320 320 320 319 318 318 318 318 317 317 317 317 317 316 315
323 324 325 326 326 327 328 329 329 329 328 326 325 327 328 326 327 327 325 325 324 323 324 324 322 322 322 321 321 320 320 321 321 321 323 323 323 325 326 326 325 324 324 324 322 320 319 320 319 319 319 318 318 318 318 318 317 317 317 316 316 315 315
322 323 324 325 326 326 327 328 328 329 329 327 325 326 327 326 326 326 326 325 323 323 325 324 322 322 322 321 321 320 320 320 321 321 322 322 323 325 326 324 323 323 323 322 320 319 319 319 319 319 318 318 318 318 318 318 318 318 317 317 317 317 316
321 323 323 324 325 325 326 326 327 328 328 326 324 325 327 326 325 326 325 323 321 323 325 324 322 322 321 321 321 321 321 320 320 321 322 321 323 325 324 323 322 321 321 320 319 319 319 319 319 319 318 318 318 318 318 318 318 318 318 318 318 318 318
321 322 323 324 324 325 325 325 326 328 328 326 324 325 325 325 325 325 322 319 320 323 325 323 322 322 321 321 321 321 321 321 320 321 321 321 323 323 322 321 321 320 319 319 319 319 319 319 319 318 318 319 319 319 319 319 318 318 318 318 318 318 317
320 321 323 324 324 324 325 325 326 327 327 326 325 325 325 325 325 323 320 319 322 324 324 323 323 322 321 320 320 320 321 320 320 321 320 321 323 322 321 320 320 319 319 319 319 319 319 319 319 318 318 318 317 317 317 318 318 318 317 317 317 316 316
319 319 321 323 324 324 324 324 324 326 327 326 325 325 325 325 324 322 319 320 322 324 323 323 322 321 320 318 317 318 319 319 320 321 320 321 323 323 321 321 320 320 319 319 319 319 319 319 318 318 317 316 315 315 315 316 316 315 314 314 314 314 314
317 318 319 321 322 322 323 322 323 325 326 325 326 325 324 324 324 322 320 320 322 323 323 322 321 321 319 317 316 317 319 319 320 322 321 321 322 323 321 320 320 320 320 320 319 318 318 317 317 317 317 316 316 315 315 314 313 313 312 312 312 312 312
315 315 316 318 320 320 320 320 320 322 324 325 325 324 322 323 324 323 321 320 321 322 322 321 321 321 319 317 316 317 318 319 320 322 322 322 322 322 321 320 319 319 319 319 318 318 318 318 318 317 316 315 315 314 314 313 313 313 313 312 312 311 311
313 314 313 314 316 318 318 318 318 319 321 323 323 321 320 322 322 321 321 320 319 320 322 321 321 320 319 317 317 317 318 319 319 321 321 321 321 321 320 320 319 318 318 319 319 318 318 318 318 316 315 314 314 314 314 313 313 313 313 312 312 312 312
312 312 312 312 312 314 314 315 315 316 318 319 320 318 317 317 317 317 319 319 319 320 321 321 320 319 318 317 317 317 318 318 319 320 320 320 320 320 319 319 318 318 318 317 318 319 319 318 317 315 314 314 314 314 314 314 313 313 313 313 313 313 312
312 311 311 311 311 311 311 312 313 314 314 315 316 315 315 315 316 316 318 318 319 319 319 319 319 319 318 318 318 319 318 318 319 319 319 319 319 318 318 317 317 317 316 315 316 317 316 315 314 313 313 313 313 313 313 314 314 313 313 313 312 311 311
312 311 311 311 311 311 311 310 311 313 314 314 314 314 315 316 316 317 318 318 318 319 319 319 319 319 319 319 319 319 319 319 319 319 319 319 318 316 316 316 316 316 315 314 313 314 313 313 312 312 312 312 312 312 313 313 313 312 311 310 308 307 305
311 311 311 312 312 312 312 311 311 311 312 313 314 314 314 315 315 316 317 317 317 317 317 318 318 318 318 318 318 318 318 318 318 317 317 317 316 315 315 315 314 314 314 313 312 312 312 311 311 311 311 311 312 312 311 309 307 305 303 301 301 301 302
309 310 311 311 311 312 311 311 311 310 310 311 312 312 312 312 312 313 314 314 314 314 314 315 315 316 315 315 315 315 314 315 315 314 314 314 314 314 313 313 312 312 312 311 310 310 310 311 311 311 310 309 308 306 303 301 300 299 299 300 301 302 302
Wind_Speed
23 24 23 22 19 17 18 18 17 16 16 17 17 15 14 16 17 15 15 16 17 17 16 16 16 16 16 16 16 16 16 15 14 11 11 13 16 17 16 14 11 8 4 1 2 5 6 8 10 10 9 10 10 8 7 8 7 6 5 4 3 2 2
23 23 23 23 20 18 18 18 17 16 16 16 16 15 15 16 17 16 16 16 17 18 17 16 17 17 16 16 16 17 17 15 13 12 11 11 13 14 15 14 12 10 8 4 3 4 6 7 8 11 11 10 10 8 8 9 8 8 7 6 4 4 3
23 21 22 23 22 19 17 18 17 16 17 16 16 15 16 17 17 17 17 17 17 17 17 17 17 17 16 16 16 17 16 15 14 13 12 10 10 13 14 13 12 11 9 7 6 5 8 7 6 9 12 12 11 10 10 10 9 8 7 6 5 4 4
23 22 22 22 22 19 17 17 17 17 17 17 16 16 16 17 18 18 18 17 16 17 17 16 16 16 16 16 16 16 16 15 14 13 12 11 10 13 14 13 11 10 8 6 6 5 7 8 5 7 12 14 12 11 12 10 9 8 7 6 5 5 4
22 21 20 19 20 19 18 18 17 17 17 17 17 18 17 17 18 18 18 17 16 17 17 16 16 16 16 17 16 16 16 15 14 13 13 12 11 13 14 13 11 9 8 6 6 5 5 7 6 6 11 16 14 12 12 11 10 9 8 8 7 6 5
22 19 19 19 19 17 17 18 18 18 18 18 19 19 18 18 18 18 18 18 17 17 17 16 16 16 17 18 17 17 17 16 15 13 13 12 11 12 13 12 11 10 9 7 6 5 5 6 7 7 10 16 15 12 12 11 11 11 10 10 8 7 6
21 19 20 20 19 17 17 18 18 19 19 19 19 19 18 18 19 18 18 18 17 17 17 17 17 17 18 18 17 17 16 16 14 13 13 12 11 12 12 12 12 11 10 9 7 5 5 6 7 8 10 14 15 12 12 12 12 12 11 11 9 8 7
22 21 21 20 19 18 17 17 16 17 19 19 18 18 17 19 19 18 18 18 17 18 19 18 18 18 18 18 18 16 16 15 15 15 14 14 13 12 12 11 11 11 11 9 7 6 6 5 6 7 9 13 15 13 13 13 12 12 11 10 9 8 8
23 23 23 22 21 18 16 16 15 16 18 19 18 17 17 18 18 18 18 18 17 18 19 19 19 18 18 18 17 17 16 16 16 16 15 15 14 12 12 11 10 10 10 9 8 8 7 5 6 6 8 11 12 11 13 15 14 13 12 10 8 8 8
21 23 23 22 21 18 16 16 15 15 16 19 19 18 18 18 18 18 18 18 18 18 19 20 19 18 18 18 17 17 17 16 16 16 16 15 14 13 13 11 10 9 9 9 8 8 8 6 7 6 6 9 10 7 8 12 15 15 11 9 8 7 7
20 22 23 22 20 16 15 15 15 15 17 19 19 19 19 19 19 19 19 19 19 18 19 19 19 19 19 18 18 18 17 16 17 16 16 16 14 14 14 12 11 10 9 9 8 9 8 7 7 7 5 7 10 10 5 5 12 15 10 8 8 7 7
19 21 21 20 17 15 16 17 16 16 18 20 20 20 21 20 19 20 20 20 20 19 19 18 18 19 19 19 19 19 18 17 17 17 17 16 16 15 15 13 12 11 10 10 10 9 8 8 8 7 6 7 10 11 7 3 9 15 11 9 9 8 7
15 17 17 17 16 16 18 19 18 18 20 20 21 21 22 21 20 19 20 20 20 19 19 18 18 19 19 19 19 19 18 18 18 17 16 16 16 16 15 14 13 12 11 11 11 10 8 9 10 8 7 8 9 9 5 2 10 14 12 11 9 7 7
13 15 15 15 16 17 19 19 19 20 21 21 21 22 23 21 19 18 18 20 20 20 20 20 19 19 18 19 19 18 18 18 17 17 17 17 17 16 15 14 14 13 12 12 12 11 9 9 11 9 8 9 9 9 7 7 10 11 11 10 8 7 6
14 16 16 16 16 17 19 20 20 21 21 22 22 23 23 20 17 17 17 19 20 20 20 20 20 19 19 18 18 18 18 17 17 17 18 17 16 15 15 14 15 14 13 13 12 12 10 10 11 10 9 10 9 10 10 8 8 9 9 7 6 5 5
13 15 15 15 17 19 20 20 21 22 22 22 23 24 24 21 18 17 17 18 19 19 19 20 20 20 19 19 19 19 18 17 17 18 17 16 15 14 14 15 15 14 14 14 13 12 11 11 12 11 11 11 11 11 11 9 7 7 6 5 4 4 3
13 14 13 14 18 21 22 22 23 23 23 24 24 25 25 23 20 19 19 19 19 19 20 20 20 20 20 19 19 19 17 17 17 17 16 14 14 14 14 15 16 15 14 13 13 12 11 11 13 13 13 13 13 12 11 10 9 7 6 6 5 5 5
14 14 14 15 19 22 23 24 25 25 25 26 27 26 26 25 23 22 21 20 20 20 20 20 21 21 21 20 20 18 17 16 16 15 14 12 13 13 13 15 16 15 14 13 13 12 11 12 13 14 14 15 14 13 12 11 10 10 9 9 9 8 7
15 15 16 16 19 21 23 25 26 26 25 27 29 27 26 25 24 23 22 21 21 21 21 21 21 22 22 21 20 18 16 15 15 14 13 12 13 13 13 15 16 16 15 14 13 13 12 13 14 15 16 16 15 13 12 11 11 11 11 11 12 11 10
17 16 17 17 19 22 25 28 29 28 26 27 28 26 25 24 24 23 22 21 21 21 21 21 21 22 21 21 20 18 16 15 14 13 13 13 13 13 13 14 16 17 16 14 14 13 12 13 14 15 17 17 14 12 11 10 11 12 13 13 12 11 10
18 18 19 19 21 23 27 30 30 29 28 28 28 26 25 24 23 23 22 21 22 21 21 22 21 21 20 20 19 17 16 16 15 13 13 12 12 13 14 14 15 16 16 15 14 13 12 12 13 16 18 16 14 12 10 9 9 10 10 11 10 10 10
14 17 20 22 22 23 27 31 32 31 30 30 30 29 27 25 24 23 22 22 22 22 22 22 21 20 19 19 18 17 16 16 14 13 12 12 12 13 13 14 14 16 17 16 14 13 13 12 12 15 16 14 12 11 10 8 8 8 8 8 8 10 11
12 13 16 20 23 24 26 30 33 33 32 32 32 31 29 27 25 23 22 23 23 23 23 22 20 19 19 18 18 17 16 16 15 13 12 11 12 12 13 13 14 16 16 16 15 15 13 12 12 14 14 12 11 11 10 9 9 8 8 7 8 10 11
11 12 13 15 19 23 26 29 33 34 35 34 34 32 31 29 26 23 23 24 24 24 23 22 21 20 19 17 17 17 17 17 16 13 11 10 11 12 13 13 14 14 15 16 17 16 13 12 13 13 13 13 12 11 10 10 9 9 9 8 8 10 11
10 10 11 12 15 19 24 28 32 35 36 35 33 32 32 30 27 24 24 25 25 25 24 23 22 20 18 17 17 17 17 17 15 13 11 9 9 11 12 13 14 15 17 18 17 15 14 13 13 13 13 14 13 11 10 9 9 9 9 8 8 9 9
13 10 8 9 11 14 19 25 30 34 35 34 32 31 31 30 26 24 24 25 26 26 25 24 22 21 19 17 17 17 17 16 14 13 11 9 8 10 13 14 17 19 19 18 16 14 14 13 13 12 13 13 12 11 10 9 9 8 7 7 7 6 6
16 13 9 8 10 13 17 22 27 30 31 32 32 30 31 30 27 25 25 24 25 27 26 24 23 21 19 18 18 18 18 16 15 14 12 10 10 13 15 16 19 20 19 18 16 15 13 12 12 11 11 11 11 11 10 9 8 7 6 6 5 5 5
19 16 12 11 11 14 19 23 26 28 30 32 32 32 33 32 28 26 24 23 25 27 26 25 23 21 20 19 19 20 20 18 16 16 14 12 13 15 16 17 18 19 19 18 17 15 13 11 10 10 10 10 9 8 8 7 6 5 4 4 5 6 7
21 18 15 13 13 15 20 24 26 28 31 32 33 34 35 33 30 26 24 23 25 26 26 25 23 21 19 18 17 20 21 19 18 18 17 15 15 15 15 16 16 17 18 16 14 13 11 9 9 9 9 8 8 8 7 6 4 3 2 3 5 8 10
22 18 15 12 13 16 20 22 25 28 30 32 33 33 34 34 31 27 25 25 25 26 25 25 24 22 19 17 16 18 20 19 18 19 19 17 16 16 16 16 16 16 16 14 13 12 11 10 10 10 9 9 9 8 7 5 4 4 5 7 10 13 15
24 20 16 11 10 13 16 18 20 24 27 30 31 30 30 32 31 29 28 27 26 27 26 24 24 23 21 18 16 16 17 17 17 18 19 19 19 19 19 18 18 17 16 15 14 13 13 12 12 11 10 10 9 8 7 6 7 8 9 11 13 16 17
27 26 22 15 9 9 11 12 14 17 21 24 24 24 26 30 30 30 30 28 27 27 26 24 23 23 22 20 16 15 16 17 17 18 19 19 20 21 21 20 20 18 17 16 15 15 14 13 13 11 10 9 8 8 8 8 9 11 12 13 15 17 18
26 28 27 21 13 7 6 7 8 10 14 17 18 18 20 22 24 25 27 27 26 25 24 23 24 24 22 20 17 14 15 17 17 18 19 20 21 21 21 20 19 18 15 13 13 13 12 11 9 8 7 7 8 8 9 9 10 12 13 14 15 16 16
21 24 26 23 18 11 4 6 8 8 9 11 14 16 16 15 16 19 21 22 23 22 22 23 24 23 21 19 17 15 16 17 18 19 21 21 21 21 20 18 17 16 13 10 9 10 9 8 8 7 7 8 9 11 11 12 14 15 16 16 16 16 16
16 18 20 20 20 18 14 11 10 9 9 10 13 16 16 14 15 16 18 19 20 21 21 21 22 21 19 18 17 15 16 18 18 19 21 22 22 21 17 13 11 11 9 6 6 7 8 9 9 9 10 11 13 15 16 17 18 19 18 17 16 14 13
14 15 16 16 17 18 17 15 13 11 9 10 11 11 13 13 15 17 19 19 18 19 19 20 20 20 20 20 20 18 17 17 18 17 17 17 16 15 13 11 9 9 9 8 9 9 8 10 11 12 13 15 16 17 17 17 16 15 13 11 9 7 7
17 15 14 14 15 16 16 16 15 13 11 10 9 9 11 12 13 15 16 16 16 16 16 16 17 18 17 16 17 16 14 14 13 12 11 10 10 11 11 9 8 8 8 8 11 12 12 13 15 15 15 15 15 13 12 10 9 8 6 5 5 5 5
Wind_Direction
234 243 242 242 240 233 230 228 230 232 225 222 226 226 218 209 207 209 212 213 215 219 222 223 223 225 224 222 222 220 214 212 213 218 226 224 216 212 212 212 213 212 207 194 189 193 196 193 197 202 200 202 206 197 189 193 196 197 196 196 207 219 223
231 243 246 248 245 237 230 228 231 228 221 218 220 222 216 210 209 211 214 214 216 219 223 222 223 225 221 215 217 217 210 210 212 216 225 232 229 225 220 217 214 211 213 230 236 206 202 204 201 198 192 193 198 195 195 197 195 195 197 201 213 220 221
226 236 246 250 249 243 231 230 233 226 220 217 215 217 216 212 211 213 216 217 218 221 222 222 220 220 215 210 214 216 210 209 211 213 221 229 231 229 228 228 225 218 216 229 244 228 215 221 218 201 194 194 193 189 191 197 196 195 197 205 216 212 215
232 237 246 253 257 256 243 234 231 225 221 217 214 216 215 214 214 215 218 219 219 219 218 218 217 214 209 208 212 213 209 209 211 212 219 223 223 225 229 234 234 230 229 240 265 267 240 238 241 215 200 196 194 188 187 193 197 198 196 200 205 198 198
241 243 249 255 260 264 261 252 237 226 224 220 216 217 216 216 215 216 218 217 215 215 214 214 213 213 211 210 213 211 206 208 209 212 219 224 221 221 228 235 236 235 237 246 268 278 262 257 261 241 207 197 195 190 188 195 197 193 191 190 186 183 178
248 252 258 261 261 261 262 257 244 231 228 224 220 219 218 217 216 216 217 215 214 213 211 211 212 214 214 213 214 211 207 208 210 214 221 227 227 225 228 233 236 236 238 245 258 258 248 246 246 243 215 197 194 190 189 197 197 186 182 185 182 182 180
252 256 262 262 260 259 258 252 241 234 233 230 225 223 222 219 218 217 216 213 212 211 209 210 214 215 215 216 216 214 211 211 215 220 224 226 228 228 229 231 232 235 240 245 246 237 235 240 239 237 213 191 188 189 190 195 197 187 183 187 190 191 192
256 259 264 262 257 256 254 247 236 232 235 234 227 225 224 221 217 215 213 210 210 210 209 210 214 215 216 218 218 217 217 217 220 223 224 225 225 227 230 230 228 231 239 241 236 226 230 243 236 237 223 194 182 184 193 200 198 189 185 190 199 204 199
265 262 262 261 256 253 251 243 232 228 232 232 227 224 221 217 214 212 213 213 212 211 211 211 213 215 217 217 217 218 218 219 221 222 222 223 224 226 228 227 225 229 234 233 228 220 225 237 224 231 241 215 195 186 194 203 200 188 183 189 198 204 199
274 267 263 259 254 252 251 243 231 226 228 228 227 221 216 213 212 214 217 218 215 213 212 212 212 214 215 216 217 219 219 219 220 220 220 222 223 224 224 222 221 227 229 225 222 217 219 227 219 222 236 226 224 218 201 207 202 188 180 183 185 184 184
277 270 265 260 253 251 250 242 231 227 227 228 227 220 215 213 213 217 219 218 216 214 213 213 213 215 216 216 218 218 218 220 221 221 220 221 222 224 221 218 218 224 225 222 221 219 221 220 215 222 224 216 228 240 258 246 201 185 176 169 162 155 160
274 274 277 275 267 252 243 239 234 230 230 228 225 220 217 216 215 218 218 216 214 213 213 214 215 218 218 218 218 216 217 220 222 223 223 222 222 222 220 217 219 223 223 223 223 221 223 217 209 214 216 212 222 235 267 306 179 176 167 153 145 139 147
265 270 285 288 275 254 240 236 232 230 229 227 223 219 218 219 219 219 217 214 214 213 215 216 218 220 221 220 218 217 219 221 223 225 225 225 223 221 220 219 221 224 223 223 222 220 221 211 203 206 212 214 221 227 235 146 156 165 159 153 151 147 150
253 256 267 268 260 250 242 237 229 226 226 224 222 218 218 220 220 218 217 216 216 216 217 218 219 221 223 223 221 219 220 222 224 226 225 225 224 221 221 219 218 220 219 219 218 217 217 206 199 202 207 212 217 215 198 152 149 159 160 162 164 162 163
250 251 258 259 251 242 239 236 227 223 223 221 220 218 218 218 217 217 219 218 216 217 218 218 220 222 223 223 222 220 221 222 223 223 223 224 223 220 217 214 214 215 215 216 214 213 212 204 198 199 203 205 205 201 191 171 156 160 168 172 173 176 176
254 253 255 257 247 236 234 231 225 222 222 220 219 219 218 217 217 219 220 219 217 217 218 219 220 222 222 221 222 222 221 221 221 222 222 222 220 217 213 210 211 213 213 214 213 212 210 204 199 196 195 194 191 190 191 192 188 181 183 191 202 219 212
256 252 250 246 238 232 231 227 222 220 221 221 220 220 219 218 218 221 221 221 220 219 219 219 220 221 220 220 221 221 221 221 220 221 222 221 217 216 214 211 210 210 211 212 211 212 209 207 203 196 187 185 185 188 192 201 213 217 219 227 235 250 249
256 252 248 241 232 231 231 227 221 218 218 221 222 221 220 219 219 221 223 223 221 219 218 217 218 218 218 218 218 219 221 221 221 220 219 216 216 217 216 213 211 208 208 209 210 210 209 211 210 201 190 184 186 192 199 211 225 235 243 250 257 264 262
254 251 248 242 233 232 231 226 222 221 220 221 224 222 219 218 219 221 225 225 221 219 218 217 217 216 216 216 216 216 217 216 216 215 212 210 212 215 214 213 210 208 208 207 209 211 211 213 213 207 197 190 189 197 208 221 234 244 253 258 261 265 264
258 252 244 238 233 232 230 226 223 224 223 224 226 222 217 218 220 221 225 225 220 219 220 218 215 214 214 214 213 212 208 205 202 199 201 204 206 209 212 213 211 210 209 206 206 212 215 217 216 207 198 193 195 203 215 228 241 250 257 258 254 253 253
265 257 245 235 230 231 230 227 224 223 222 223 222 217 215 218 220 221 223 221 218 218 219 215 211 210 211 209 207 202 195 191 188 188 194 199 203 208 210 211 214 215 212 206 207 209 207 208 206 196 191 193 200 207 213 227 240 246 248 247 240 234 236
268 261 252 242 235 233 231 228 226 222 219 220 219 215 213 214 217 221 221 217 217 218 215 211 207 204 201 197 193 190 189 188 188 192 198 199 205 209 207 210 216 214 211 210 207 197 186 186 188 187 188 195 201 203 206 216 227 233 235 236 228 223 227
273 265 258 251 243 238 233 228 226 222 215 215 217 216 213 212 214 220 221 217 216 216 211 205 200 196 193 191 189 190 194 195 193 195 200 202 209 210 204 205 209 207 208 206 194 179 172 174 179 184 193 200 198 196 200 204 209 216 222 226 225 225 230
289 274 261 258 251 244 237 230 226 221 214 212 214 216 215 213 213 217 220 218 217 215 207 201 198 195 193 191 193 196 197 195 193 194 200 207 215 212 202 197 196 196 197 193 181 172 170 172 174 179 188 194 194 193 197 200 205 210 214 217 223 229 235
323 294 264 261 260 251 244 235 227 221 214 211 213 218 217 214 211 212 218 221 219 213 206 202 199 197 196 194 195 196 195 193 193 194 199 209 218 213 202 193 187 183 181 179 175 172 170 169 171 177 184 189 193 194 194 197 204 211 216 222 228 232 239
350 326 284 267 268 263 257 246 233 223 215 210 212 218 219 215 209 209 217 222 217 209 205 204 202 199 199 199 197 196 195 195 196 197 199 209 211 198 189 181 174 172 172 173 173 174 172 171 172 175 180 184 185 187 189 194 202 209 217 226 233 240 249
354 337 310 288 281 278 271 256 239 224 212 207 210 215 216 212 205 205 215 218 211 206 205 204 203 203 203 205 205 201 199 200 202 199 197 198 191 177 171 170 169 168 169 171 173 175 176 175 176 176 177 179 178 178 182 186 194 203 212 227 243 257 268
355 345 322 298 285 274 261 250 239 225 212 207 210 213 211 206 200 202 210 213 208 206 206 203 202 204 206 210 211 208 204 206 206 200 193 191 188 178 171 171 172 173 175 175 176 180 182 181 184 185 186 189 189 191 195 196 201 210 223 248 271 286 297
358 354 333 300 275 257 243 236 231 224 214 208 210 213 208 199 196 199 205 210 210 207 205 204 202 203 205 207 210 209 208 209 207 198 190 188 189 187 183 182 185 187 187 185 184 188 188 184 185 190 195 200 200 202 207 208 209 225 258 291 306 313 316
2 358 344 307 267 244 233 226 219 216 212 208 211 215 207 195 193 199 204 207 208 206 204 202 201 202 204 206 207 206 205 206 204 196 191 191 192 192 191 191 193 195 194 191 187 186 182 178 182 193 199 199 196 196 199 208 233 267 288 302 312 317 317
13 10 0 329 278 244 233 222 212 209 208 208 210 213 206 193 191 199 205 207 207 206 204 203 202 203 205 206 207 205 201 201 200 197 196 196 194 193 192 190 192 195 196 195 193 192 190 187 187 190 193 194 197 204 217 243 269 284 293 300 306 309 308
26 26 20 2 323 270 241 221 211 208 206 206 209 209 202 195 192 194 199 204 207 208 205 203 203 204 205 207 209 210 206 202 199 200 201 198 194 193 192 190 189 191 194 195 196 196 195 195 195 196 203 215 227 240 258 275 283 287 291 295 299 300 299
31 34 33 24 4 319 257 204 194 204 199 199 206 203 193 190 186 182 186 195 203 207 206 202 201 202 205 208 210 213 212 205 201 200 198 195 192 189 187 186 183 183 186 190 196 198 197 203 211 216 229 249 264 272 279 284 286 288 290 292 293 292 290
36 39 41 39 35 28 40 125 137 153 164 171 184 183 176 182 184 175 176 185 193 198 198 195 195 196 199 203 204 207 207 203 203 202 196 191 189 183 179 181 179 179 180 181 193 206 215 229 243 253 266 275 280 283 286 288 288 288 287 286 286 284 281
43 45 47 49 52 53 56 76 104 123 138 150 161 160 157 168 181 177 175 179 181 182 182 183 185 185 186 187 186 187 189 187 188 189 187 186 182 176 175 183 187 192 201 212 224 227 227 234 246 258 268 273 277 279 281 280 279 279 280 281 281 280 279
38 46 51 54 58 62 61 61 69 86 113 136 153 157 151 159 171 171 172 175 171 168 167 167 167 167 169 171 170 169 174 176 178 180 184 189 190 190 200 217 224 224 232 258 277 273 261 258 262 265 268 269 270 270 268 267 268 270 273 275 275 273 269
34 39 46 51 55 61 63 62 63 67 76 91 112 128 131 139 152 157 162 165 161 157 157 157 158 161 163 168 172 175 180 185 188 193 200 207 209 209 213 221 227 226 232 255 271 268 261 259 258 259 260 261 260 258 257 257 260 261 263 262 261 263 265